Starlink 11591

operational
NORAD ID: 63116 Int'l Des: 2025-039 Owner: SPXS Country: US Constellation: starlink
LEOCIRCULAR

关于 Starlink 11591

正在加载描述...

实时位置

正在加载3D地球...

即将过境

高度历史

Altitude vs Time

uPlot chart will show altitude changes over time

两行轨道根数

1 63116U 25039N 25303.30545680 .00448455 00000-0 32823-2 0 9990
2 63116 42.9984 302.3758 0001592 215.0198 145.0565 15.71064052 39117
Epoch: Oct 30, 2025 • Age: 21 hours

当前状态

高度 357.0 km
速度 7.70 km/s
星下点 -19.54°S, 38.99°E
发射日期 Feb 27, 2025
运行时间 0.6 years
类型 internet

技术详情

分类 Payload
质量 960.00 kg
干质量 910.00 kg
总质量 960.00 kg
长度 0.30 m
直径 4.10 m
跨度 29.00 m
形状 Box + pan
制造商 SPXS
平台类型 Starlink V2MD
阶段状态 In Orbit
所有者/国家 SPXS/US

大型星座

Loading constellations...